When you browse on this site, cookies collect data to enhance your experience and personalize the content and advertising you see.
Visit our Privacy Policy to learn more. By continuing to use the site, you agree to this use of cookies and data.
  • In Spain
  • List of Countries
  • For 7 days
  • Water Temperature
  • Satellite Maps
  • Weather Map
  • Weather Widgets
  • user-avatar
    Login

    Hourly Weather Connaught

    Today, 20 January, Sunday

    Time Temperature Precipitation Wind Pressure Humidity
    00:00 +6°C° 0.5 mm 2 mps 744 mmHg 96%
    01:00 +5°C° 0.5 mm 3 mps 744 mmHg 95%
    02:00 +5°C° 0.5 mm 5 mps 745 mmHg 95%
    03:00 +5°C° 0.1 mm 5 mps 746 mmHg 91%
    04:00 +4°C° 0.1 mm 6 mps 746 mmHg 87%
    05:00 +4°C° 0 mm 6 mps 747 mmHg 87%
    06:00 +3°C° 0 mm 6 mps 748 mmHg 86%
    07:00 +3°C° 0 mm 6 mps 749 mmHg 84%
    08:00 +3°C° 0 mm 6 mps 750 mmHg 82%
    09:00 +3°C° 0 mm 5 mps 750 mmHg 79%
    10:00 +3°C° 0 mm 5 mps 751 mmHg 77%
    11:00 +5°C° 0 mm 4 mps 752 mmHg 75%
    12:00 +5°C° 0 mm 4 mps 752 mmHg 74%
    13:00 +5°C° 0 mm 4 mps 752 mmHg 74%
    14:00 +5°C° 0 mm 4 mps 753 mmHg 74%
    15:00 +4°C° 0 mm 3 mps 753 mmHg 76%
    16:00 +3°C° 0 mm 2 mps 753 mmHg 79%
    17:00 +2°C° 0 mm 2 mps 754 mmHg 82%
    18:00 +3°C° 0 mm 1 mps 754 mmHg 82%
    19:00 +3°C° 0 mm 1 mps 754 mmHg 81%
    20:00 +2°C° 0 mm 1 mps 754 mmHg 81%
    21:00 +2°C° 0 mm 1 mps 754 mmHg 82%
    22:00 +2°C° 0 mm 1 mps 754 mmHg 83%
    23:00 +1°C° 0 mm 2 mps 754 mmHg 84%

    Tomorrow, 21 January, Monday

    Time Temperature Precipitation Wind Pressure Humidity
    00:00 +1°C° 0 mm 2 mps 753 mmHg 85%
    01:00 +1°C° 0 mm 2 mps 753 mmHg 85%
    02:00 0°C° 0 mm 3 mps 752 mmHg 86%
    03:00 0°C° 0 mm 3 mps 751 mmHg 86%
    04:00 0°C° 0 mm 3 mps 751 mmHg 86%
    05:00 -1°C° 0 mm 4 mps 750 mmHg 86%
    06:00 0°C° 0 mm 5 mps 749 mmHg 85%
    07:00 +1°C° 0 mm 5 mps 748 mmHg 84%
    08:00 +1°C° 0 mm 6 mps 747 mmHg 83%
    09:00 +2°C° 0.2 mm 7 mps 746 mmHg 84%
    10:00 +2°C° 0.2 mm 7 mps 744 mmHg 84%
    11:00 +2°C° 0.2 mm 8 mps 743 mmHg 84%
    12:00 +2°C° 2 mm 8 mps 742 mmHg 85%
    13:00 +1°C° 2 mm 8 mps 741 mmHg 86%
    14:00 +2°C° 2 mm 7 mps 740 mmHg 87%
    15:00 +1°C° 0.2 mm 6 mps 740 mmHg 85%
    16:00 -1°C° 0.2 mm 6 mps 740 mmHg 83%
    17:00 -1°C° 0.2 mm 5 mps 739 mmHg 81%
    18:00 -1°C° 0.1 mm 4 mps 739 mmHg 81%
    19:00 -1°C° 0.1 mm 4 mps 739 mmHg 81%
    20:00 -1°C° 0.1 mm 4 mps 739 mmHg 81%
    21:00 -1°C° 0.1 mm 4 mps 739 mmHg 81%
    22:00 -1°C° 0.1 mm 4 mps 739 mmHg 82%
    23:00 -1°C° 0.1 mm 4 mps 738 mmHg 82%

    Day after tomorrow, 22 January, Tuesday

    Time Temperature Precipitation Wind Pressure Humidity
    00:00 -1°C° 0.2 mm 4 mps 738 mmHg 81%
    01:00 -2°C° 0.2 mm 4 mps 738 mmHg 81%
    02:00 -2°C° 0.2 mm 4 mps 738 mmHg 81%
    03:00 -2°C° 0.1 mm 4 mps 737 mmHg 81%
    04:00 -2°C° 0.1 mm 4 mps 737 mmHg 80%
    05:00 -2°C° 0.1 mm 4 mps 737 mmHg 80%
    06:00 -2°C° 0.1 mm 4 mps 737 mmHg 81%
    07:00 -2°C° 0.1 mm 4 mps 738 mmHg 81%
    08:00 -2°C° 0.1 mm 4 mps 738 mmHg 81%
    09:00 -1°C° 0.1 mm 4 mps 738 mmHg 81%
    10:00 -1°C° 0.1 mm 5 mps 738 mmHg 80%
    11:00 0°C° 0.1 mm 5 mps 738 mmHg 80%
    12:00 0°C° 0.2 mm 5 mps 738 mmHg 81%
    13:00 0°C° 0.2 mm 4 mps 738 mmHg 82%
    14:00 0°C° 0.2 mm 4 mps 738 mmHg 83%
    15:00 +1°C° 0.2 mm 3 mps 738 mmHg 85%
    16:00 +1°C° 0.2 mm 3 mps 738 mmHg 88%
    17:00 +1°C° 0.2 mm 2 mps 738 mmHg 91%
    18:00 +1°C° 0.2 mm 2 mps 738 mmHg 92%
    19:00 +1°C° 0.2 mm 2 mps 738 mmHg 93%
    20:00 +1°C° 0.2 mm 2 mps 738 mmHg 94%
    21:00 +2°C° 0.1 mm 2 mps 739 mmHg 94%
    22:00 +2°C° 0.1 mm 2 mps 739 mmHg 95%
    23:00 +2°C° 0.1 mm 2 mps 739 mmHg 95%

    23 January, Wednesday

    Time Temperature Precipitation Wind Pressure Humidity
    00:00 +2°C° 0 mm 2 mps 739 mmHg 95%
    01:00 +2°C° 0 mm 2 mps 739 mmHg 95%
    02:00 +3°C° 0 mm 1 mps 739 mmHg 95%
    03:00 +3°C° 0 mm 1 mps 739 mmHg 94%
    04:00 +3°C° 0 mm 1 mps 739 mmHg 94%
    05:00 +3°C° 0 mm 1 mps 740 mmHg 94%
    06:00 +3°C° 0 mm 1 mps 740 mmHg 95%
    07:00 +3°C° 0 mm 1 mps 740 mmHg 95%
    08:00 +3°C° 0 mm 1 mps 741 mmHg 96%
    09:00 +4°C° 0 mm 1 mps 741 mmHg 96%
    10:00 +4°C° 0 mm 1 mps 741 mmHg 96%
    11:00 +4°C° 0 mm 2 mps 742 mmHg 96%
    12:00 +4°C° 0 mm 2 mps 742 mmHg 96%
    13:00 +4°C° 0 mm 2 mps 741 mmHg 96%
    14:00 +5°C° 0 mm 2 mps 741 mmHg 96%
    15:00 +5°C° 0.3 mm 2 mps 741 mmHg 97%
    16:00 +5°C° 0.3 mm 2 mps 741 mmHg 98%
    17:00 +5°C° 0.3 mm 2 mps 741 mmHg 98%
    18:00 +6°C° 0.2 mm 2 mps 742 mmHg 98%
    19:00 +6°C° 0.2 mm 2 mps 742 mmHg 98%
    20:00 +7°C° 0.2 mm 3 mps 742 mmHg 98%
    21:00 +8°C° 0 mm 3 mps 742 mmHg 97%
    22:00 +7°C° 0 mm 4 mps 743 mmHg 97%
    23:00 +7°C° 0 mm 4 mps 743 mmHg 96%

    24 January, Thursday

    Time Temperature Precipitation Wind Pressure Humidity
    00:00 +7°C° 0 mm 4 mps 743 mmHg 96%
    01:00 +7°C° 0 mm 4 mps 743 mmHg 96%
    02:00 +7°C° 0 mm 4 mps 743 mmHg 96%
    03:00 +7°C° 0.1 mm 4 mps 744 mmHg 96%
    04:00 +8°C° 0.1 mm 5 mps 744 mmHg 95%
    05:00 +8°C° 0.1 mm 5 mps 744 mmHg 95%
    06:00 +8°C° 0 mm 5 mps 745 mmHg 94%
    07:00 +8°C° 0 mm 5 mps 745 mmHg 94%
    08:00 +8°C° 0 mm 5 mps 745 mmHg 93%
    09:00 +8°C° 0.1 mm 5 mps 746 mmHg 92%
    10:00 +8°C° 0.1 mm 5 mps 746 mmHg 91%
    11:00 +8°C° 0.1 mm 4 mps 746 mmHg 90%
    12:00 +8°C° 0 mm 4 mps 746 mmHg 89%
    13:00 +8°C° 0 mm 4 mps 746 mmHg 88%
    14:00 +8°C° 0 mm 5 mps 746 mmHg 87%
    15:00 +8°C° 0 mm 4 mps 746 mmHg 88%
    16:00 +7°C° 0 mm 4 mps 747 mmHg 89%
    17:00 +7°C° 0 mm 4 mps 747 mmHg 90%
    18:00 +7°C° 0 mm 4 mps 747 mmHg 90%
    19:00 +7°C° 0 mm 4 mps 747 mmHg 89%
    20:00 +8°C° 0 mm 3 mps 748 mmHg 89%
    21:00 +8°C° 0 mm 3 mps 748 mmHg 90%
    22:00 +8°C° 0 mm 3 mps 748 mmHg 92%
    23:00 +8°C° 0 mm 3 mps 748 mmHg 93%

    25 January, Friday

    Time Temperature Precipitation Wind Pressure Humidity
    00:00 +7°C° 0 mm 4 mps 747 mmHg 92%
    01:00 +7°C° 0 mm 4 mps 747 mmHg 92%
    02:00 +7°C° 0 mm 4 mps 747 mmHg 92%
    03:00 +6°C° 0 mm 4 mps 747 mmHg 93%
    04:00 +6°C° 0 mm 4 mps 747 mmHg 94%
    05:00 +6°C° 0 mm 4 mps 746 mmHg 95%
    06:00 +6°C° 0 mm 5 mps 746 mmHg 94%
    07:00 +7°C° 0 mm 5 mps 746 mmHg 93%
    08:00 +7°C° 0 mm 5 mps 746 mmHg 92%
    09:00 +8°C° 0.2 mm 5 mps 746 mmHg 93%
    10:00 +8°C° 0.2 mm 5 mps 746 mmHg 93%
    11:00 +8°C° 0.2 mm 5 mps 746 mmHg 94%
    12:00 +8°C° 0.3 mm 5 mps 746 mmHg 94%
    13:00 +8°C° 0.3 mm 5 mps 745 mmHg 94%
    14:00 +9°C° 0.3 mm 5 mps 745 mmHg 94%
    15:00 +8°C° 0.2 mm 4 mps 744 mmHg 94%
    16:00 +8°C° 0.2 mm 4 mps 744 mmHg 95%
    17:00 +9°C° 0.2 mm 3 mps 743 mmHg 96%
    18:00 +8°C° 1.3 mm 4 mps 743 mmHg 95%
    19:00 +8°C° 1.3 mm 5 mps 742 mmHg 95%
    20:00 +7°C° 1.3 mm 5 mps 741 mmHg 95%
    21:00 +6°C° 2.7 mm 5 mps 741 mmHg 94%
    22:00 +5°C° 2.7 mm 5 mps 741 mmHg 93%
    23:00 +2°C° 2.7 mm 5 mps 740 mmHg 92%
    Show more